Location: ????
(33.1659°N, 35.6604°E)
Time: 08:11:24
(UTC+00:00)

Cosmos 2333 - Pass Details

Date: 20 September 2019
Orbit: 831 x 865 km, 70.9° (Epoch: 13 October)

Event Time Altitude Azimuth Distance (km) Brightness Sun altitude
Rises 16:23:52 0° 339° (NNW) 3,404 7.8 -10.5°
Reaches altitude 10° 16:26:19 10° 340° (NNW) 2,471 7.0 -11.0°
Maximum altitude 16:32:01 88° 71° (ENE) 856 4.2 -12.2°
Drops below altitude 10° 16:37:43 10° 160° (SSE) 2,480 6.3 -13.4°
Sets 16:40:11 0° 160° (SSE) 3,417 7.1 -13.9°
